Location: Larkspur
(54.4391°N, 113.7691°W)
Time: 13:31:45
(UTC+00:00)

METEOR M2 - Pass Details

Date: 10 December 2023
Orbit: 819 x 826 km, 98.4° (Epoch: 02 March)

Event Time Altitude Azimuth Distance (km) Brightness Sun altitude
Rises 01:12:04 0° 190° (S) 3,354 ? -16.3°
Reaches altitude 10° 01:14:36 10° 199° (SSW) 2,425 ? -16.6°
Maximum altitude 01:19:30 36° 265° (W) 1,301 ? -17.3°
Drops below altitude 10° 01:24:27 10° 331° (NNW) 2,439 ? -18.0°
Sets 01:27:01 0° 340° (NNW) 3,376 ? -18.4°
